Waarnemingen

Advertentie
Mijn weer
Cannes, Frankrijk (7684): temperatuur & dauwpunt: 19.06.2019 14:00:00 - 25.06.2019 14:00:00 (CEST)Cannes, Frankrijk (7684): temperatuur 5cm: 19.06.2019 14:00:00 - 25.06.2019 14:00:00 (CEST)Cannes, Frankrijk (7684): windsnelheid & windstoten: 19.06.2019 14:00:00 - 25.06.2019 14:00:00 (CEST)Cannes, Frankrijk (7684): windrichting: 19.06.2019 14:00:00 - 25.06.2019 14:00:00 (CEST)Cannes, Frankrijk (7684): luchtdruk: 19.06.2019 14:00:00 - 25.06.2019 14:00:00 (CEST)Cannes, Frankrijk (7684): zicht: 19.06.2019 14:00:00 - 25.06.2019 14:00:00 (CEST)Cannes, Frankrijk (7684): neerslag: 19.06.2019 14:00:00 - 25.06.2019 14:00:00 (CEST)
Datum & Tijd tt [°C] td [°C] tt 5cm [°C] ff [km/u] ff [kn] fx [km/u] fx [kn] dd ppp [hPa] vv [km] rr [mm]
25.06.2019 14:00:00 31,6 15,5 39,5 14 8 26 14 ZO 1020,9 46 0,0
25.06.2019 13:00:00 32,1 15,1 39,8 13 7 26 14 ZO 1020,8 55 0,0
25.06.2019 12:00:00 32,6 15,1 38,8 11 6 25 13 OZO 1020,9 19 0,0
25.06.2019 11:00:00 31,7 14,4 37,4 11 6 22 12 OZO 1020,9 60 0,0
25.06.2019 10:00:00 31,6 15,1 37,2 10 5 21 11 OZO 1020,7 59 0,0
25.06.2019 09:00:00 28,1 18,5 31,2 4 2 10 6 N 1020,6 20 0,0
25.06.2019 08:00:00 24,0 16,5 23,2 5 3 12 7 N 1020,3 19 0,0
25.06.2019 07:00:00 21,0 14,9 19,2 4 2 13 7 N 1019,8 52 0,0
25.06.2019 06:00:00 20,4 14,1 19,0 8 4 16 9 N 1019,1 60 0,0
25.06.2019 05:00:00 20,6 13,8 19,1 9 5 14 8 N 1018,7 60 0,0
25.06.2019 04:00:00 20,9 14,1 19,3 9 5 16 9 N 1018,5 60 0,0
25.06.2019 03:00:00 20,7 14,6 19,1 8 4 18 10 N 1018,6 60 0,0
25.06.2019 02:00:00 21,3 14,9 19,8 8 5 17 9 N 1018,7 60 0,0
25.06.2019 01:00:00 21,5 15,3 20,0 8 4 14 8 N 1018,8 60 0,0
25.06.2019 00:00:00 22,3 15,9 20,4 6 3 11 6 N 1018,6 19 0,0
24.06.2019 23:00:00 23,3 16,6 20,2 5 3 9 5 N 1018,6 59 0,0
24.06.2019 22:00:00 24,6 17,1 19,8 0 0 7 4 N 1018,1 60 0,0
24.06.2019 21:00:00 25,4 17,1 23,5 5 3 9 5 Z 1017,7 60 0,0
24.06.2019 20:00:00 27,5 16,1 29,6 6 3 11 6 Z 1017,7 60 0,0
24.06.2019 19:00:00 28,6 16,5 32,5 7 4 16 8 ZZW 1017,7 45 0,0
24.06.2019 18:00:00 29,2 16,4 35,6 11 6 20 11 Z 1017,6 53 0,0
24.06.2019 17:00:00 29,0 16,5 35,3 13 7 22 12 ZZO 1017,7 45 0,0
24.06.2019 16:00:00 29,1 17,3 37,0 16 9 23 12 ZZO 1017,9 20 0,0
24.06.2019 15:00:00 29,0 18,7 37,9 13 7 21 11 Z 1018,0 50 0,0
24.06.2019 14:00:00 28,5 19,2 38,0 11 6 19 10 Z 1018,1 56 0,0
24.06.2019 13:00:00 27,8 18,5 36,2 11 6 16 8 ZZO 1018,2 60 0,0
24.06.2019 12:00:00 26,8 18,9 35,3 9 5 18 10 Z 1018,3 60 0,0
24.06.2019 11:00:00 27,1 17,6 33,6 6 3 13 7 Z 1018,1 60 0,0
24.06.2019 10:00:00 26,9 18,2 33,2 6 4 10 5 Z 1018,2 60 0,0
24.06.2019 09:00:00 25,3 17,5 27,1 0 0 14 8 N 1018,1 52 0,0
24.06.2019 08:00:00 21,3 16,7 22,6 11 6 18 10 N 1018,0 46 0,0
24.06.2019 07:00:00 18,7 15,9 16,3 6 3 10 5 N 1017,8 35 0,0
24.06.2019 06:00:00 17,3 15,3 16,2 7 4 14 8 N 1017,4 40 0,0
24.06.2019 05:00:00 17,7 15,9 16,5 6 4 16 8 N 1017,2 38 0,0
24.06.2019 04:00:00 17,9 16,2 16,5 5 3 13 7 N 1017,1 33 0,0
24.06.2019 03:00:00 18,1 16,6 16,7 6 3 9 5 N 1017,2 33 0,0
24.06.2019 02:00:00 18,6 17,1 17,1 5 3 9 5 N 1017,3 6 0,0
24.06.2019 01:00:00 19,3 17,6 17,8 5 3 11 6 N 1017,3 1,6 0,0
24.06.2019 00:00:00 20,0 17,8 18,4 4 2 8 5 N 1017,3 43 0,0
23.06.2019 23:00:00 20,8 17,6 17,9 4 2 6 3 N 1016,7 56 0,0
23.06.2019 22:00:00 22,1 18,7 19,4 3 2 7 4 W 1016,1 59 0,0
23.06.2019 21:00:00 22,8 19,0 22,0 5 3 11 6 Z 1015,6 60 0,0
23.06.2019 20:00:00 23,3 18,8 23,9 8 4 12 7 Z 1015,5 60 0,0
23.06.2019 19:00:00 23,7 20,0 26,9 8 5 17 9 ZZO 1015,4 34 0,0
23.06.2019 18:00:00 24,2 19,9 27,9 10 5 23 12 Z 1015,2 35 0,0
23.06.2019 17:00:00 25,2 19,3 32,0 14 7 22 12 ZZO 1015,2 40 0,0
23.06.2019 16:00:00 25,8 19,9 31,7 9 5 24 13 ZZO 1015,1 39 0,0
23.06.2019 15:00:00 25,5 19,2 33,9 14 8 26 14 ZZO 1015,4 36 0,0
23.06.2019 14:00:00 24,9 18,8 33,6 16 8 22 12 ZZO 1015,4 39 0,0
23.06.2019 13:00:00 25,2 18,9 34,2 13 7 20 11 Z 1015,4 39 0,0
23.06.2019 12:00:00 25,2 17,9 32,7 11 6 23 13 ZZO 1015,3 41 0,0
23.06.2019 11:00:00 25,2 17,4 32,8 10 6 17 9 Z 1014,8 43 0,0
23.06.2019 10:00:00 24,0 16,3 31,0 7 4 14 8 ZZO 1014,5 51 0,0
23.06.2019 09:00:00 23,4 16,9 24,8 3 1 9 5 NNO 1014,3 47 0,0
23.06.2019 08:00:00 20,0 16,0 21,2 6 3 13 7 N 1014,0 38 0,0
23.06.2019 07:00:00 17,5 15,5 15,4 7 4 10 6 N 1014,1 26 0,0
23.06.2019 06:00:00 16,5 15,4 15,2 6 3 13 7 N 1013,9 22 0,0
23.06.2019 05:00:00 16,8 15,3 15,8 7 4 14 7 N 1014,0 20 0,0
23.06.2019 04:00:00 17,1 16,0 15,9 5 3 11 6 N 1014,1 19 0,0
23.06.2019 03:00:00 17,7 16,4 16,4 3 1 14 7 N 1014,1 17 0,0
23.06.2019 02:00:00 18,3 17,1 17,3 8 5 13 7 NNO 1014,2 17 0,0
23.06.2019 01:00:00 19,0 17,7 17,8 7 4 12 7 N 1014,1 17 0,0
23.06.2019 00:00:00 19,6 18,3 18,6 8 5 12 7 N 1014,3 10 0,0
22.06.2019 23:00:00 20,1 18,2 18,5 7 4 11 6 N 1014,3 19 0,0
22.06.2019 22:00:00 20,9 18,5 18,8 4 2 7 4 W 1013,9 9 0,0
22.06.2019 21:00:00 23,3 18,4 22,0 3 1 9 5 OZO 1013,4 29 0,0
22.06.2019 20:00:00 24,1 18,7 26,9 6 3 11 6 ZZO 1013,3 44 0,0
22.06.2019 19:00:00 25,1 17,8 26,4 0 0 5 3 N 1013,2 54 0,0
22.06.2019 18:00:00 24,9 18,1 22,8 4 2 18 10 N 1013,4 20 0,0
22.06.2019 17:00:00 21,7 19,3 18,0 5 3 19 11 WZW 1013,7 20 2,2
22.06.2019 16:00:00 22,7 13,7 20,9 9 5 21 12 N 1014,0 20 0,0
22.06.2019 15:00:00 25,7 18,6 30,7 14 8 30 16 ZZO 1013,8 19 0,0
22.06.2019 14:00:00 26,0 18,7 30,8 17 9 28 15 Z 1013,7 38 0,0
22.06.2019 13:00:00 26,0 18,2 34,2 19 10 28 15 ZZO 1013,5 45 0,0
22.06.2019 12:00:00 26,8 17,3 34,6 13 7 21 11 ZZO 1013,9 53 0,0
22.06.2019 11:00:00 25,5 16,9 33,0 9 5 19 10 ZZO 1013,8 60 0,0
22.06.2019 10:00:00 25,3 16,4 32,6 11 6 17 9 ZZO 1013,8 60 0,0
22.06.2019 09:00:00 25,7 14,8 27,7 0 0 14 8 N 1013,4 20 0,0
22.06.2019 08:00:00 21,3 14,5 21,2 9 5 17 9 N 1013,1 32 0,0
22.06.2019 07:00:00 18,5 14,8 16,3 7 4 13 7 N 1013,1 44 0,0
22.06.2019 06:00:00 18,0 14,3 16,2 5 3 11 6 N 1013,3 42 0,0
22.06.2019 05:00:00 18,5 14,6 16,0 4 2 14 8 NNO 1013,1 45 0,0
22.06.2019 04:00:00 18,4 15,5 16,3 6 3 10 6 NNW 1013,3 38 0,0
22.06.2019 03:00:00 18,5 15,6 16,9 6 3 11 6 N 1013,3 36 0,0
22.06.2019 02:00:00 19,2 16,2 17,8 4 2 14 8 NNW 1013,7 33 0,0
22.06.2019 01:00:00 19,5 17,1 17,6 5 3 12 7 N 1014,5 29 0,0
22.06.2019 00:00:00 20,2 17,4 16,6 5 3 11 6 N 1014,5 19 0,0
21.06.2019 23:00:00 21,4 17,8 17,8 0 0 10 5 N 1014,3 20 0,0
21.06.2019 22:00:00 22,0 18,6 20,6 5 3 11 6 N 1014,5 28 0,0
21.06.2019 21:00:00 22,7 19,5 21,9 7 4 16 9 ZZO 1014,4 26 0,0
21.06.2019 20:00:00 23,9 18,8 27,0 10 5 17 9 ZZO 1013,8 39 0,0
21.06.2019 19:00:00 25,4 19,1 31,3 11 6 21 11 Z 1013,3 45 0,0
21.06.2019 18:00:00 25,2 19,6 31,9 13 7 27 14 ZZO 1013,5 34 0,0
21.06.2019 17:00:00 26,0 19,9 33,1 14 7 24 13 ZZO 1013,7 35 0,0
21.06.2019 16:00:00 25,9 19,5 32,9 17 9 29 16 Z 1014,5 38 0,0
21.06.2019 15:00:00 25,5 19,4 33,3 16 9 31 17 ZZO 1014,6 20 0,0
21.06.2019 14:00:00 25,6 18,3 34,1 19 10 29 16 Z 1014,7 46 0,0
21.06.2019 13:00:00 25,4 17,8 32,6 16 8 29 15 ZZO 1015,3 57 0,0
21.06.2019 12:00:00 26,1 14,5 33,0 16 9 26 14 ZO 1015,1 60 0,0
21.06.2019 11:00:00 26,7 11,2 32,6 9 5 18 10 O 1014,7 60 0,0
21.06.2019 10:00:00 25,0 13,5 29,3 8 4 15 8 NO 1014,7 60 0,0
21.06.2019 09:00:00 24,0 17,3 24,1 2 1 12 6 O 1015,0 60 0,0
21.06.2019 08:00:00 20,5 17,5 20,5 5 3 12 6 N 1014,7 15 0,0
21.06.2019 07:00:00 17,8 15,8 16,3 8 4 12 7 NNO 1014,5 20 0,0
21.06.2019 06:00:00 16,9 15,2 16,2 8 4 15 8 NNO 1014,3 23 0,0
21.06.2019 05:00:00 17,0 15,5 16,3 8 4 14 8 N 1013,9 20 0,0
21.06.2019 04:00:00 17,4 16,1 16,3 7 4 14 8 N 1014,0 20 0,0
21.06.2019 03:00:00 17,6 16,5 14,8 6 3 11 6 N 1014,2 18 0,0
21.06.2019 02:00:00 18,2 16,7 15,6 7 4 13 7 N 1014,2 20 0,0
21.06.2019 01:00:00 19,1 17,6 15,6 0 0 7 4 N 1014,3 19 0,0
21.06.2019 00:00:00 19,5 17,8 18,3 5 3 10 5 N 1014,0 20 0,0
20.06.2019 23:00:00 20,1 18,2 18,1 3 2 8 5 NNO 1014,2 22 0,0
20.06.2019 22:00:00 21,2 18,6 19,3 4 2 10 6 ZO 1014,0 19 0,0
20.06.2019 21:00:00 21,4 19,0 20,6 6 3 13 7 ZO 1013,2 32 0,0
20.06.2019 20:00:00 22,0 19,2 22,9 6 3 17 9 ZZO 1013,1 33 0,0
20.06.2019 19:00:00 22,9 19,1 26,0 9 5 20 11 ZZO 1012,7 33 0,0
20.06.2019 18:00:00 23,1 18,4 26,3 9 5 18 10 ZZO 1012,8 52 0,0
20.06.2019 17:00:00 24,2 19,1 30,9 12 6 23 13 ZO 1012,8 42 0,0
20.06.2019 16:00:00 24,5 17,2 29,3 13 7 24 13 ZO 1012,8 45 0,0
20.06.2019 15:00:00 23,1 16,6 27,9 16 9 24 13 Z 1013,0 46 0,0
20.06.2019 14:00:00 24,7 18,2 34,2 13 7 22 12 ZZO 1013,3 43 0,0
20.06.2019 13:00:00 25,1 17,6 33,7 13 7 22 12 Z 1013,6 46 0,0
20.06.2019 12:00:00 24,2 17,9 33,6 13 7 22 12 Z 1013,5 20 0,0
20.06.2019 11:00:00 23,9 17,9 28,7 12 7 19 10 ZZO 1013,4 57 0,0
20.06.2019 10:00:00 24,0 17,3 30,5 8 5 14 8 ZZO 1013,8 48 0,0
20.06.2019 09:00:00 23,2 15,8 27,0 4 2 10 6 NNW 1014,0 42 0,0
20.06.2019 08:00:00 19,7 12,2 19,7 7 4 16 9 N 1013,7 41 0,0
20.06.2019 07:00:00 16,3 10,4 13,1 7 4 11 6 N 1013,7 20 0,0
20.06.2019 06:00:00 15,0 9,6 12,8 6 3 11 6 N 1013,3 60 0,0
20.06.2019 05:00:00 15,1 9,7 13,3 7 4 13 7 N 1012,8 60 0,0
20.06.2019 04:00:00 15,8 9,7 13,5 6 4 11 6 N 1012,6 60 0,0
20.06.2019 03:00:00 16,8 9,9 14,1 6 4 13 7 N 1013,0 60 0,0
20.06.2019 02:00:00 17,8 10,4 14,8 6 4 12 7 N 1013,0 60 0,0
20.06.2019 01:00:00 18,0 11,1 15,1 6 3 9 5 N 1012,9 60 0,0
20.06.2019 00:00:00 19,1 11,6 15,5 5 3 8 4 N 1012,9 60 0,0
19.06.2019 23:00:00 20,6 11,8 16,0 5 3 10 5 N 1013,0 60 0,0
19.06.2019 22:00:00 22,4 10,8 17,4 4 2 26 14 ZZW 1012,9 19 0,0
19.06.2019 21:00:00 25,2 9,1 23,3 9 5 17 9 Z 1012,4 60 0,0
19.06.2019 20:00:00 27,1 9,0 27,0 11 6 19 10 Z 1012,0 58 0,0
19.06.2019 19:00:00 29,7 9,8 31,8 12 7 27 14 ZZW 1012,0 50 0,0
19.06.2019 18:00:00 29,7 9,8 34,0 17 9 31 17 ZZW 1012,1 29 0,0
19.06.2019 17:00:00 30,1 10,1 36,0 19 10 27 15 Z 1012,5 32 0,0
19.06.2019 16:00:00 30,4 11,4 32,7 16 9 32 17 ZZW 1012,7 33 0,0
19.06.2019 15:00:00 29,5 13,3 36,6 22 12 31 17 Z 1013,2 20 0,0
19.06.2019 14:00:00 26,6 17,7 34,9 20 11 32 17 ZZO 1013,6 28 0,0

tt = temperatuur
td = dauwpunt
tt 5cm = temperatuur 5cm
ff = windsnelheid
fx = windstoten
dd = windrichting
ppp = luchtdruk
vv = zicht
rr = neerslag

Weerstations in de omgeving